Weather History for YPKU - September, 2013

Change the Weather History Date:

Tuesday, September 3, 2013

  Actual Average Record
Temperature  
Mean Temperature 80 °F -  
Max Temperature 99 °F - - ()
Min Temperature 61 °F - - ()
Cooling Degree Days 15    
Growing Degree Days 30 (Base 50)    
Moisture  
Dew Point 47 °F    
Average Humidity 37    
Maximum Humidity 77    
Minimum Humidity 5    
Precipitation  
Precipitation 0.00 in - - ()
Sea Level Pressure  
Sea Level Pressure 29.96 in    
Wind  
Wind Speed 6 mph ()    
Max Wind Speed 23 mph    
Max Gust Speed 29 mph    
Visibility 6.5 miles    
Events      
T = Trace of Precipitation, MM = Missing Value Source: Averaged Metar Reports

Daily Weather History Graph

Daily Weather History Graph

Search for Another Location

Airport or City:

Trip Planner

Search our weather history database for the weather conditions in past years. The results will help you decide how hot, cold, wet, or windy it might be!

Date:

Astronomy

Sep. 03, 2013 Rise Set
Actual Time 5:29 AM AWST 5:19 PM AWST
Civil Twilight 5:08 AM AWST 5:41 PM AWST
Nautical Twilight 4:43 AM AWST 6:06 PM AWST
Astronomical Twilight 4:18 AM AWST 6:31 PM AWST
Moon 3:35 AM AWST (9/3) 3:28 PM AWST (9/3)
Length of Visible Light 12h 32m
Length of Day
11h 49m
Waning Crescent, 5% of the Moon is Illuminated
Sep 3
Waning Crescent
Sep 5
New
Sep 13
First Quarter
Sep 19
Full
Sep 27
Last Quarter

Hourly Weather History & Observations

Time (AWST) Temp. Heat Index Dew Point Humidity Pressure Visibility Wind Dir Wind Speed Gust Speed Precip Events Conditions
12:00 AM 65 °F - 52 °F 54% 29.96 in - North 6.9 mph - -  
12:00 AM 66.2 °F - 51.8 °F 60% 29.95 in 6.2 mi North 6.9 mph - N/A   Unknown
12:30 AM 68.0 °F - 53.6 °F 60% 29.95 in 6.2 mi Calm Calm - N/A   Unknown
1:00 AM 66.2 °F - 55.4 °F 68% 29.95 in 6.2 mi South 3.5 mph - N/A   Unknown
1:30 AM 68.0 °F - 59.0 °F 73% 29.95 in 6.2 mi South 2.3 mph - N/A   Unknown
2:00 AM 69 °F - 54 °F 48% 29.95 in - South 3.5 mph - -  
2:00 AM 69.8 °F - 53.6 °F 56% 29.95 in 6.2 mi South 3.5 mph - N/A   Unknown
2:30 AM 68.0 °F - 57.2 °F 68% 29.95 in 6.2 mi South 3.5 mph - N/A   Unknown
3:00 AM 64.4 °F - 53.6 °F 68% 29.95 in 6.2 mi Calm Calm - N/A   Unknown
3:30 AM 66.2 °F - 55.4 °F 68% 29.95 in 6.2 mi Calm Calm - N/A   Unknown
4:00 AM 64.4 °F - 55.4 °F 73% 29.98 in 6.2 mi Calm Calm - N/A   Unknown
4:30 AM 62.6 °F - 53.6 °F 72% 29.98 in 6.2 mi Calm Calm - N/A   Unknown
5:00 AM 62.6 °F - 55.4 °F 77% 30.01 in 6.2 mi Calm Calm - N/A   Unknown
5:30 AM 62.6 °F - 55.4 °F 77% 30.01 in 6.2 mi South 3.5 mph - N/A   Unknown
6:00 AM 64 °F - 57 °F 73% 30.03 in 12 mi South 2.3 mph - -   Partly Cloudy
6:00 AM 64.4 °F - 57.2 °F 77% 30.04 in 6.2 mi South 2.3 mph - N/A   Unknown
6:30 AM 71.6 °F - 60.8 °F 69% 30.04 in 6.2 mi ESE 4.6 mph - N/A   Unknown
7:00 AM 77.0 °F - 64.4 °F 65% 30.06 in 6.2 mi ENE 3.5 mph - N/A   Unknown
7:30 AM 78.8 °F - 62.6 °F 57% 30.06 in 6.2 mi South 4.6 mph - N/A   Unknown
8:00 AM 83 °F - 62 °F 38% 30.06 in - SSE 4.6 mph - -  
8:00 AM 82.4 °F 82.9 °F 60.8 °F 48% 30.06 in 6.2 mi SSE 4.6 mph - N/A   Unknown
8:28 AM 87.8 °F - 48.2 °F 25% 30.06 in 6.2 mi ENE 17.3 mph - N/A   Unknown
8:30 AM 86.0 °F - 48.2 °F 27% 30.06 in 6.2 mi ENE 17.3 mph - N/A   Unknown
9:00 AM 89 °F - 44 °F 12% 30.06 in 12 mi ENE 12.7 mph - -   Partly Cloudy
9:00 AM 89.6 °F - 44.6 °F 21% 30.06 in 6.2 mi ENE 12.7 mph - N/A   Unknown
9:30 AM 91.4 °F - 37.4 °F 15% 30.06 in 6.2 mi ENE 17.3 mph - N/A   Unknown
10:00 AM 93.2 °F - 39.2 °F 15% 30.04 in 6.2 mi ENE 12.7 mph - N/A   Unknown
10:30 AM 93.2 °F - 35.6 °F 13% 30.04 in 6.2 mi NE 12.7 mph - N/A   Unknown
11:00 AM 94 °F - 36 °F 6% 30.01 in - East 11.5 mph - -  
11:00 AM 95.0 °F - 35.6 °F 12% 30.01 in 6.2 mi East 11.5 mph - N/A   Unknown
11:30 AM 95.0 °F - 32.0 °F 11% 29.98 in 6.2 mi East 12.7 mph - N/A   Unknown
12:00 PM 96.8 °F - 32.0 °F 10% 29.95 in 6.2 mi ESE 15.0 mph - N/A   Unknown
12:30 PM 96.8 °F - 32.0 °F 10% 29.95 in 6.2 mi East 12.7 mph - N/A   Unknown
12:51 PM 96.8 °F - 30.2 °F 10% 29.92 in 6.2 mi East 23.0 mph - N/A   Unknown
12:55 PM 95.0 °F - 32.0 °F 11% 29.92 in 6.2 mi East 17.3 mph 28.8 mph N/A   Unknown
1:00 PM 96.8 °F - 32.0 °F 10% 29.92 in 6.2 mi ENE 11.5 mph - N/A   Unknown
1:30 PM 98.6 °F - 32.0 °F 10% 29.92 in 6.2 mi East 13.8 mph - N/A   Unknown
2:00 PM 96.8 °F - 32.0 °F 10% 29.89 in 6.2 mi East 16.1 mph - N/A   Unknown
2:30 PM 96.8 °F - 33.8 °F 11% 29.89 in 6.2 mi ENE 11.5 mph - N/A   Unknown
3:00 PM 97 °F - 33 °F 5% 29.89 in 12 mi SE 11.5 mph - -   Partly Cloudy
3:00 PM 96.8 °F - 32.0 °F 10% 29.89 in 6.2 mi SE 11.5 mph - N/A   Unknown
3:30 PM 96.8 °F - 32.0 °F 10% 29.89 in 6.2 mi East 12.7 mph - N/A   Unknown
4:00 PM 95.0 °F - 32.0 °F 11% 29.89 in 6.2 mi ESE 10.4 mph - N/A   Unknown
4:30 PM 95.0 °F - 33.8 °F 12% 29.89 in 6.2 mi East 11.5 mph - N/A   Unknown
5:00 PM 92 °F - 36 °F 7% 29.89 in - East 9.2 mph - -  
5:00 PM 91.4 °F - 35.6 °F 14% 29.89 in 6.2 mi East 9.2 mph - N/A   Unknown
5:30 PM 87.8 °F - 39.2 °F 18% 29.89 in 6.2 mi East 5.8 mph - N/A   Unknown
6:00 PM 83 °F - 45 °F 17% 29.91 in - East 4.6 mph - -  
6:00 PM 82.4 °F - 44.6 °F 26% 29.92 in 6.2 mi East 4.6 mph - N/A   Unknown
6:30 PM 80.6 °F - 48.2 °F 32% 29.92 in 6.2 mi Calm Calm - N/A   Unknown
7:00 PM 77.0 °F - 50.0 °F 39% 29.92 in 6.2 mi Calm Calm - N/A   Unknown
7:30 PM 75.2 °F - 53.6 °F 47% 29.95 in 6.2 mi ESE 3.5 mph - N/A   Unknown
8:00 PM 74 °F - 53 °F 37% 29.94 in - Calm Calm - -  
8:00 PM 73.4 °F - 53.6 °F 50% 29.95 in 6.2 mi Calm Calm - N/A   Unknown
8:30 PM 73.4 °F - 55.4 °F 53% 29.95 in 6.2 mi Calm Calm - N/A   Unknown
9:00 PM 72 °F - 51 °F 36% 29.96 in - North 5.8 mph - -  
9:00 PM 71.6 °F - 51.8 °F 50% 29.95 in 6.2 mi North 5.8 mph - N/A   Unknown
9:30 PM 69.8 °F - 51.8 °F 53% 29.95 in 6.2 mi North 4.6 mph - N/A   Unknown
10:00 PM 69.8 °F - 50.0 °F 49% 29.95 in 6.2 mi North 6.9 mph - N/A   Unknown
10:30 PM 69.8 °F - 50.0 °F 49% 29.95 in 6.2 mi North 6.9 mph - N/A   Unknown
11:00 PM 69 °F - 50 °F 41% 29.94 in - NNW 4.6 mph - -  
11:00 PM 69.8 °F - 50.0 °F 49% 29.95 in 6.2 mi NNW 4.6 mph - N/A   Unknown
11:30 PM 69.8 °F - 51.8 °F 53% 29.95 in 6.2 mi East 8.1 mph - N/A   Unknown